Wetbulb
59.53 59.22 58.89 58.28 58.07 58.34 58.65 58.44 57.33 57.55 58.25 58.82 58.56 58.47 58.37 58.28 58.11 58.02 58.02 58.20 58.19 58.19 58.37 58.82 59.27 59.37 59.10 58.74 58.56 58.52 58.52 58.65 58.65 57.71 57.09 57.29 57.68 57.88 58.15 58.26 58.13 57.90 57.49 56.99 56.31 55.56 54.97 54.35 53.87 53.48 53.12 53.02 53.10 53.50 53.64 53.28 51.82 50.76 50.09 49.48 49.18 48.76 48.45 48.17 48.01 47.59 47.13 47.04 47.41
59.07 58.80 58.01 56.37 56.42 57.45 58.34 57.91 57.37 57.46 57.99 58.83 58.65 58.47 58.38 58.29 58.07 57.98 58.07 58.20 58.55 58.50 58.50 58.82 59.10 59.10 58.82 58.56 58.47 58.47 58.37 58.28 58.10 57.57 57.03 57.15 57.27 57.37 57.45 57.73 57.64 57.39 56.80 55.88 55.04 54.60 54.27 54.19 54.35 54.31 54.21 54.19 54.38 53.72 52.98 52.64 51.56 50.62 49.72 49.07 48.99 48.73 48.45 48.35 48.17 47.82 47.44 47.39 47.24
58.68 58.50 58.14 57.92 58.20 58.29 58.29 57.98 57.98 58.07 58.25 58.47 58.56 58.47 58.29 58.29 58.11 58.02 58.11 58.19 58.68 58.68 58.41 58.46 58.65 58.64 58.59 58.58 58.67 58.60 58.41 58.22 57.95 57.60 57.15 56.97 56.87 56.62 56.64 56.76 56.97 56.52 55.67 55.02 54.61 54.33 54.46 54.59 54.65 54.39 54.31 54.77 54.19 53.12 52.24 51.87 50.93 50.22 49.73 49.14 49.19 49.12 48.91 48.95 48.30 47.84 47.76 47.77 47.08
58.41 58.32 58.28 58.28 58.23 58.10 58.01 58.02 57.93 57.93 58.02 58.20 58.29 58.20 58.11 58.10 58.10 58.05 58.14 58.14 58.31 58.22 58.14 58.14 58.24 58.23 58.14 58.32 58.28 58.14 57.89 57.23 57.50 57.23 56.97 56.75 56.52 56.28 56.12 56.27 56.25 56.19 55.88 55.24 54.92 54.85 54.92 55.14 55.17 55.14 54.91 54.62 53.37 52.74 52.32 51.71 50.31 50.06 50.19 49.76 49.53 49.30 49.12 49.26 48.61 48.22 48.12 47.82 47.07
58.14 58.23 58.28 58.19 58.10 58.10 58.10 58.05 57.96 57.86 57.95 57.95 57.96 57.78 57.69 57.69 57.78 57.87 57.96 57.87 57.87 57.77 57.99 58.09 58.08 57.99 57.93 57.96 57.79 57.71 57.49 57.18 55.72 56.21 56.97 56.57 56.30 56.25 56.10 56.02 56.14 56.22 56.13 55.73 55.34 55.12 55.17 55.43 55.79 55.86 55.59 54.58 53.61 52.66 51.79 51.15 50.68 50.42 50.22 49.99 49.76 49.66 49.58 49.49 49.07 48.71 48.30 47.92 47.35
58.01 58.10 58.19 58.19 58.01 57.92 58.01 58.04 57.81 57.79 57.68 57.58 57.37 57.18 57.15 57.15 57.33 57.42 57.41 57.41 57.50 57.68 57.52 56.80 56.73 56.73 56.91 57.60 57.42 57.19 57.23 57.37 56.70 56.75 56.97 56.66 56.40 56.12 55.97 56.17 56.32 56.38 56.34 55.95 55.72 55.42 55.44 55.67 56.19 56.01 55.18 53.98 54.02 53.06 51.79 51.03 50.81 50.59 50.33 49.89 49.79 49.87 49.92 49.66 49.40 48.93 48.20 47.69 47.36
57.90 57.95 57.95 57.90 57.72 57.77 57.81 57.90 57.55 57.52 57.39 57.19 56.76 56.57 56.63 56.73 56.82 57.00 57.09 57.27 57.32 57.15 56.57 55.81 56.37 56.74 57.04 57.34 56.95 56.84 56.94 57.09 57.27 57.14 56.97 56.66 56.40 56.16 56.10 56.08 56.32 56.34 56.29 56.12 55.99 55.65 55.35 55.35 54.92 53.80 52.82 53.42 54.00 52.75 51.01 50.95 50.92 50.72 50.58 50.26 49.94 49.87 49.84 49.50 49.37 48.83 48.45 48.08 47.82
57.88 57.69 57.64 57.58 57.48 57.48 57.48 57.46 57.23 57.13 56.92 56.79 56.49 56.32 56.32 56.59 56.62 56.72 56.81 57.00 56.87 56.70 56.49 56.49 57.28 57.43 57.33 57.10 56.78 56.67 56.75 56.91 56.99 57.06 56.97 56.75 56.39 56.28 56.21 56.24 56.23 56.27 56.28 56.34 55.84 55.19 54.54 54.16 53.21 52.50 51.92 51.79 51.48 50.88 50.49 50.61 50.64 50.65 50.55 50.32 50.02 49.92 49.84 49.70 49.60 49.24 48.74 48.36 48.04
57.54 57.42 57.31 57.39 57.33 57.28 57.19 57.10 56.91 56.82 56.64 56.43 56.32 56.32 56.32 56.32 56.48 56.45 56.55 56.51 56.34 56.34 56.61 57.02 57.35 57.36 57.25 56.97 56.69 56.48 56.63 56.82 56.89 56.90 56.88 56.70 56.37 56.21 56.15 56.18 56.20 56.07 55.97 55.82 55.04 54.06 53.38 52.91 52.29 52.01 52.00 51.79 51.27 50.84 50.56 50.18 50.29 50.35 50.21 50.34 50.02 49.45 49.18 49.27 49.43 49.32 48.93 48.78 48.34
57.14 57.08 57.06 56.97 57.01 57.04 56.98 57.03 56.85 56.71 56.43 56.20 56.18 56.06 55.54 54.31 55.43 56.15 56.37 56.24 56.01 56.24 56.70 56.97 57.05 57.09 56.88 56.68 56.39 56.34 56.28 56.53 56.51 56.52 56.47 56.27 56.00 55.98 55.97 55.89 55.52 55.34 54.87 54.42 53.72 52.99 52.34 52.20 51.73 51.55 51.55 51.39 51.02 50.65 50.42 50.15 50.22 50.18 50.18 50.30 49.87 49.37 48.99 48.99 49.16 49.02 48.75 49.06 48.76
56.88 56.88 56.83 56.72 56.71 56.57 56.47 56.80 56.63 56.35 56.20 56.08 55.90 55.82 55.39 54.53 55.52 55.97 56.19 56.17 56.27 56.33 56.52 56.60 56.69 56.55 56.36 56.21 55.94 55.73 55.59 55.78 55.86 56.03 56.03 56.00 55.68 55.53 55.39 54.92 54.43 53.98 53.54 52.95 52.59 52.31 52.12 51.96 51.45 51.11 50.92 50.77 50.61 50.42 50.34 50.07 50.29 50.18 50.09 50.26 49.81 49.56 49.45 49.40 49.63 49.55 49.48 49.40 48.98
56.86 56.76 56.71 56.68 56.59 56.57 56.35 56.46 56.24 56.15 55.99 55.85 55.65 55.78 55.83 56.17 56.30 56.09 55.82 56.17 56.10 56.15 56.24 56.46 56.27 56.08 55.85 55.57 55.47 55.12 55.02 55.40 55.44 55.42 55.48 55.76 55.61 55.15 54.42 53.50 53.20 52.81 52.41 52.16 52.25 52.25 52.08 51.65 51.34 50.90 50.42 50.15 50.59 50.62 50.51 50.06 50.21 50.20 50.09 49.94 49.73 49.73 49.87 49.84 49.94 50.23 50.37 50.10 49.32
56.74 56.61 56.52 56.44 56.40 56.48 56.27 56.01 55.97 55.82 55.75 55.56 55.53 55.71 55.86 56.17 56.02 55.90 55.82 56.00 55.88 55.97 56.15 56.09 55.94 55.70 55.55 55.45 55.39 55.38 55.42 55.41 55.32 55.30 55.27 55.48 55.51 54.87 53.62 52.46 52.45 52.26 52.23 52.06 52.23 52.23 51.93 51.35 51.06 50.81 50.44 50.22 50.58 50.55 50.35 50.21 50.28 50.21 50.23 49.93 49.82 49.87 49.95 50.14 50.22 50.41 50.23 49.69 49.45
56.54 56.46 56.34 56.27 56.14 56.02 55.81 55.74 55.65 55.63 55.52 55.29 55.53 55.81 56.12 56.30 55.82 55.73 55.82 56.00 55.82 55.82 55.92 55.92 55.56 55.27 55.33 55.32 55.51 55.50 55.59 55.47 55.42 55.33 55.23 55.27 55.33 54.50 53.27 52.26 52.26 52.11 52.23 52.11 52.04 51.81 51.63 51.23 51.03 50.82 50.58 50.29 50.41 50.26 50.29 50.43 50.46 50.52 50.41 50.18 49.93 49.83 49.91 50.20 50.22 50.07 49.71 49.16 49.07
56.37 56.28 56.19 56.08 56.00 55.69 55.52 55.30 55.31 55.36 55.30 55.37 55.60 55.92 56.14 56.18 55.74 55.65 55.82 55.99 55.94 55.91 55.83 55.74 55.43 55.29 55.24 55.57 55.75 55.75 55.62 55.60 55.41 55.27 55.11 55.08 54.85 53.97 52.80 52.23 52.13 52.08 52.15 52.04 51.93 51.63 51.46 51.27 51.10 50.88 50.76 50.59 50.62 50.62 50.51 50.59 50.65 50.78 50.62 50.47 50.20 50.14 50.05 50.06 49.96 49.79 49.55 49.06 49.18
56.20 56.11 56.09 55.92 55.65 55.47 55.30 55.19 55.25 55.22 55.27 55.39 55.65 56.02 56.24 56.18 56.00 55.72 55.67 55.84 56.00 55.92 55.88 55.55 55.65 55.64 55.58 55.18 55.50 55.62 55.72 55.51 55.30 55.13 54.85 54.74 54.00 53.11 52.25 52.18 52.03 52.03 51.98 51.91 51.68 51.65 51.50 51.37 51.37 51.33 51.27 51.20 51.12 51.05 51.03 50.73 50.76 50.76 50.67 50.56 50.41 50.26 50.07 49.83 49.68 49.68 49.56 49.25 49.16
55.92 55.87 55.94 55.71 55.63 55.36 55.24 55.27 55.28 55.30 55.40 55.52 55.84 56.02 56.23 56.26 56.27 55.82 55.27 55.34 55.72 55.72 55.58 55.48 55.63 55.74 55.52 54.98 55.24 55.49 55.47 55.24 55.04 54.77 54.45 53.87 52.93 52.42 52.10 52.08 52.01 52.03 52.10 51.95 51.76 51.80 51.71 51.50 51.73 51.86 51.91 51.83 51.85 51.63 51.35 50.91 50.89 50.73 50.62 50.62 50.44 50.46 50.16 49.67 49.68 49.76 49.63 49.32 49.16
55.87 55.77 55.80 55.75 55.57 55.35 55.32 55.29 55.39 55.40 55.40 55.47 55.78 56.04 56.28 56.42 56.23 55.88 55.48 55.43 55.64 55.63 55.45 55.42 55.66 55.72 55.54 55.43 55.37 55.27 55.12 55.11 54.67 54.28 53.63 52.71 52.20 52.08 52.13 52.13 52.10 52.13 52.23 52.23 52.15 52.08 51.93 51.98 52.13 52.40 52.55 52.48 52.28 51.91 51.56 51.12 51.04 50.90 50.73 50.64 50.50 50.60 50.36 50.03 49.98 49.98 49.83 49.48 49.17
55.63 55.72 55.62 55.57 55.56 55.48 55.45 55.14 55.26 55.28 55.35 55.51 55.75 56.03 56.17 56.37 56.33 56.12 56.02 56.00 55.72 55.67 55.57 55.55 55.70 55.70 55.49 55.14 55.29 54.96 54.60 54.93 54.38 53.54 52.68 52.08 52.04 52.23 52.22 52.14 52.22 52.29 52.38 52.45 52.53 52.53 52.53 52.60 52.59 52.66 52.73 52.53 52.31 51.97 51.53 51.26 51.25 51.11 50.90 50.80 50.75 50.72 50.75 50.49 50.07 49.94 49.76 49.63 49.30
55.57 55.62 55.57 55.65 55.59 55.55 55.47 55.38 55.42 55.47 55.58 55.58 55.68 55.73 55.92 56.19 56.34 56.20 56.06 56.09 55.94 55.93 55.83 55.72 55.69 55.64 55.48 54.96 54.74 54.53 54.54 54.63 54.02 53.12 52.31 52.08 52.16 52.23 52.35 52.35 52.35 52.50 52.60 52.75 52.82 52.89 53.04 53.11 53.05 52.83 52.61 52.22 51.89 51.60 51.49 51.27 51.21 51.22 51.14 51.18 51.03 50.96 50.79 50.56 50.20 49.96 49.92 49.85 49.46
55.59 55.59 55.67 55.75 55.84 55.76 55.81 55.79 55.89 55.92 55.92 56.02 55.83 55.77 55.84 56.14 56.26 56.26 56.17 56.13 56.29 56.09 55.96 55.81 55.72 55.63 55.17 54.38 53.87 54.03 54.28 54.04 53.90 53.14 52.46 52.17 52.16 52.32 52.42 52.49 52.64 52.78 52.94 53.09 53.15 53.27 53.27 53.34 53.08 52.78 52.42 51.81 51.49 51.32 51.43 51.39 51.35 51.37 51.26 51.36 51.40 51.27 51.10 51.05 51.07 50.80 50.19 49.31 47.93
55.63 55.82 55.90 55.90 55.99 55.95 56.02 56.10 56.19 56.28 56.34 56.35 56.25 56.04 55.82 55.95 56.19 56.42 56.43 56.45 56.38 56.17 56.05 55.94 55.88 55.59 55.06 53.95 53.54 53.78 53.84 53.81 53.85 53.30 52.79 52.50 52.42 52.43 52.57 52.74 52.89 52.96 52.96 53.23 53.31 53.30 53.13 52.93 52.75 52.55 52.16 51.84 51.58 51.37 51.31 51.22 51.44 51.43 51.38 51.18 51.44 51.46 51.30 51.40 50.86 49.87 48.60 47.09 45.55
55.73 55.83 56.02 56.07 56.08 55.63 55.45 55.98 56.34 56.43 56.49 56.36 56.36 56.39 56.20 55.94 56.28 56.52 56.69 56.64 56.18 55.96 55.87 55.97 55.93 55.60 55.07 53.98 53.73 53.72 53.70 53.65 53.63 53.27 52.99 53.01 52.92 52.84 52.76 52.98 53.04 53.01 53.01 53.26 53.30 53.26 53.12 52.75 52.40 52.29 52.19 51.98 51.83 51.59 51.44 51.28 51.18 51.40 51.63 51.79 51.67 51.20 50.46 49.77 48.88 47.37 45.60 43.71 42.68
55.91 55.93 56.08 56.07 56.04 55.91 55.94 56.13 56.27 56.28 56.34 56.35 56.44 56.38 56.34 56.11 56.13 56.27 56.35 56.25 55.83 55.72 55.64 55.68 55.58 55.21 54.85 54.23 54.03 53.86 53.58 53.36 53.18 53.08 53.01 53.19 53.24 53.14 53.11 53.18 53.16 53.09 53.02 53.11 52.45 51.98 51.93 52.02 52.42 52.35 52.19 52.06 52.07 52.07 51.93 51.88 51.99 52.05 52.07 51.97 51.18 50.09 48.99 47.88 46.56 44.87 43.03 41.33 40.80
56.07 55.97 55.84 56.05 55.99 56.07 56.09 56.12 56.08 56.18 56.14 56.23 56.40 56.43 56.49 56.07 55.83 55.90 55.93 55.75 55.53 55.40 55.24 55.12 55.02 55.02 54.78 54.35 54.22 54.00 53.63 53.27 53.02 52.87 52.92 52.96 53.24 53.28 53.26 53.38 53.33 53.38 52.95 51.79 48.54 47.04 47.09 48.33 50.82 52.32 52.82 52.54 52.52 52.51 52.22 52.06 51.64 51.36 51.01 50.37 49.32 48.42 47.41 45.98 44.31 42.64 41.11 39.76 39.31
56.17 56.00 56.01 56.06 56.04 56.12 56.00 56.05 56.05 56.06 56.11 56.24 56.33 56.35 56.21 56.01 55.45 55.39 55.43 55.13 55.14 54.91 54.84 54.75 54.72 54.15 53.71 54.28 54.13 53.78 53.48 53.26 53.08 52.84 52.79 53.02 53.16 53.13 53.31 53.55 53.53 53.90 53.41 50.58 46.52 44.56 44.13 44.69 45.88 47.74 50.24 53.00 52.37 51.73 51.09 50.79 49.97 49.62 49.40 49.14 48.62 47.77 46.56 44.54 42.57 41.08 39.90 38.86 38.50
56.16 56.03 56.04 56.18 56.08 56.00 55.87 55.96 56.11 56.02 56.12 56.11 56.09 56.09 56.05 55.86 55.22 55.12 54.91 54.75 54.67 54.66 54.70 54.69 54.68 53.27 52.45 54.01 53.83 53.51 53.18 53.05 52.93 53.05 52.99 53.16 53.16 53.11 53.20 53.57 53.83 53.60 51.69 47.25 43.92 42.32 42.14 42.44 42.40 42.94 45.42 50.46 51.15 50.79 50.08 49.38 48.18 47.55 47.23 47.23 47.14 46.20 44.67 42.62 40.83 39.36 38.33 37.81 37.75
55.94 55.89 55.89 55.96 55.85 55.72 55.82 56.05 55.96 55.87 55.81 55.94 55.89 55.95 55.84 55.48 55.04 54.75 54.63 54.50 54.52 54.51 54.61 54.49 54.26 53.56 53.33 53.72 53.39 53.23 53.15 53.00 53.20 53.20 53.42 53.42 53.31 53.26 53.33 53.73 53.12 49.36 43.80 39.39 39.69 40.17 40.78 41.47 41.32 41.46 42.93 46.47 49.91 49.56 47.46 46.12 45.04 44.41 43.91 43.50 43.23 42.70 41.94 40.68 39.20 38.02 37.03 36.57 36.66
55.68 55.57 55.55 55.44 55.42 55.49 55.63 55.72 55.67 55.65 55.78 55.88 55.80 55.76 55.53 55.11 54.75 54.61 54.67 54.51 54.43 54.18 54.12 54.12 53.72 53.52 53.34 53.10 53.07 53.00 53.08 53.20 53.38 53.53 53.48 53.32 53.11 53.11 52.65 51.00 45.16 41.67 39.96 39.08 39.27 40.03 41.20 42.46 42.46 42.79 43.61 44.90 46.87 46.43 44.85 43.05 41.75 40.57 39.61 38.98 38.50 38.26 37.99 37.72 37.18 36.46 35.83 35.39 35.42
55.45 55.20 55.05 55.02 55.00 55.20 55.40 55.49 55.60 55.62 55.81 55.83 55.68 55.45 55.01 54.61 54.42 54.45 54.64 54.53 54.05 53.52 53.12 53.19 52.92 52.69 52.47 52.49 52.66 52.73 52.78 53.03 53.09 53.07 52.87 52.80 52.59 49.08 44.50 41.70 42.04 41.72 40.73 39.33 39.96 40.89 41.78 42.43 42.10 41.91 41.85 42.08 42.26 41.92 40.94 39.13 37.92 36.76 35.95 35.30 34.86 34.53 34.35 34.30 34.46 34.46 34.46 34.30 34.29
55.17 54.90 54.82 54.70 54.76 54.92 55.06 55.18 55.48 55.67 55.75 55.68 55.24 54.93 54.44 53.86 53.56 53.70 53.98 53.83 52.79 51.50 50.98 51.85 52.09 51.98 51.93 52.11 52.19 52.14 52.11 51.92 51.87 51.74 51.08 49.35 45.42 43.19 42.17 41.56 41.43 40.89 40.21 39.67 40.18 40.60 40.65 40.39 39.90 39.37 38.97 38.80 38.70 38.24 37.30 35.61 34.64 33.80 33.20 32.83 32.56 32.38 32.27 32.22 32.15 32.40 32.67 32.78 32.85
54.77 54.53 54.51 54.41 54.41 54.58 54.85 55.11 55.36 55.40 55.42 55.17 54.75 54.34 53.89 53.09 52.61 52.56 52.30 51.77 51.00 50.49 50.49 51.14 51.59 51.93 52.08 52.22 51.43 50.35 49.11 47.70 46.90 46.08 45.42 44.75 43.27 42.05 41.05 40.39 39.77 39.10 38.68 38.94 39.09 39.10 38.79 38.36 37.74 37.08 36.56 36.05 35.53 35.20 34.49 33.20 32.23 31.52 31.03 30.72 30.74 30.67 30.70 30.60 30.58 30.68 30.86 31.13 31.13
54.27 54.22 53.95 53.94 53.93 54.14 54.48 54.74 54.94 54.89 54.75 54.48 54.10 53.70 53.12 52.38 51.79 51.52 51.15 50.70 50.80 50.80 50.49 49.17 48.12 47.34 46.56 45.99 45.11 44.17 43.35 42.75 42.43 42.21 42.26 42.50 41.78 40.80 39.60 38.54 38.21 37.65 37.31 37.49 37.45 37.29 36.94 36.55 36.10 35.49 34.83 34.31 33.76 33.15 32.41 31.63 30.78 30.11 29.61 29.39 29.34 29.32 29.32 29.26 29.26 29.35 29.41 29.48 29.53
54.04 53.75 53.70 53.44 53.33 53.62 53.87 54.04 54.13 53.96 53.59 53.15 52.84 52.65 52.18 51.54 51.02 50.66 50.09 49.00 48.11 47.18 45.98 44.55 43.55 42.96 42.51 42.33 42.15 41.97 41.82 41.82 42.01 42.06 41.94 41.69 40.53 39.36 38.17 37.41 36.94 36.65 36.56 36.30 36.14 35.92 35.65 35.27 34.84 34.27 33.67 32.98 32.43 31.61 30.86 30.18 29.56 29.05 28.68 28.33 28.26 28.16 28.27 28.24 28.24 28.33 28.42 28.49 28.45
53.86 53.52 53.27 53.12 53.04 53.13 53.12 53.03 52.94 52.63 52.09 51.56 51.49 51.35 51.05 50.71 50.26 49.16 47.45 45.49 44.60 43.89 43.08 42.31 41.91 41.36 41.05 40.86 41.08 41.16 41.25 41.56 41.70 41.35 40.78 40.08 38.92 37.75 36.72 36.18 35.86 35.77 35.77 35.57 35.31 35.10 34.75 34.45 34.02 33.42 32.69 31.81 31.06 30.29 29.55 28.88 28.34 27.98 27.72 27.49 27.39 27.37 27.35 27.44 27.51 27.55 27.63 27.73 27.74
53.68 53.38 53.05 52.81 52.64 52.51 52.18 51.92 51.77 51.43 51.00 50.64 50.55 50.37 49.99 49.75 48.53 46.74 44.96 43.32 42.69 42.07 41.29 40.43 40.17 39.72 39.48 39.34 39.88 40.06 40.32 40.72 40.63 40.41 40.02 38.98 37.74 36.78 36.03 35.48 35.22 35.16 35.14 35.05 34.75 34.54 34.20 33.86 33.38 32.87 32.16 31.28 30.36 29.46 28.75 28.22 27.64 27.39 27.12 26.92 26.84 26.92 27.00 26.99 26.95 27.11 27.20 27.19 27.10
53.64 53.31 53.01 52.58 52.39 51.99 51.67 51.32 51.02 50.64 50.44 50.39 50.28 49.80 48.99 48.00 46.21 44.87 43.72 42.45 41.46 40.20 39.06 38.38 37.93 37.70 37.70 37.79 38.00 38.23 38.60 39.00 38.81 38.72 38.56 37.85 37.09 36.33 35.60 35.13 34.69 34.32 34.24 34.49 34.27 34.04 33.65 33.31 32.83 32.21 31.33 30.29 29.42 28.86 28.32 27.81 27.29 26.91 26.59 26.42 26.49 26.69 26.96 27.01 27.11 27.12 26.94 26.84 26.76
53.62 53.22 52.65 52.33 52.01 51.78 51.36 51.05 50.75 50.46 50.23 50.15 49.84 48.89 47.62 45.98 44.60 43.40 42.17 40.85 39.73 38.44 37.15 36.63 36.32 36.09 35.99 35.99 36.03 36.21 36.36 36.77 36.65 36.73 36.65 36.42 36.02 35.42 34.89 34.38 34.09 33.86 33.72 34.01 33.86 33.57 33.27 32.94 32.39 31.68 30.70 29.39 28.79 28.32 27.79 27.11 26.59 26.23 25.97 25.80 25.95 26.25 26.67 27.02 27.11 27.18 27.09 26.96 27.28
53.76 52.96 52.51 52.10 51.88 51.51 51.43 51.07 50.74 50.56 50.20 49.67 48.53 47.09 45.58 44.33 43.22 42.07 40.87 39.90 38.93 37.65 36.54 35.54 34.91 34.64 34.55 34.57 34.59 34.58 34.80 35.13 35.22 35.21 35.14 35.04 34.77 34.46 34.05 33.53 33.44 33.36 33.44 33.58 33.40 33.27 32.99 32.65 32.18 31.49 30.59 29.22 28.60 28.04 27.27 26.63 25.87 25.41 25.14 25.09 25.06 25.27 25.62 26.15 26.42 26.57 26.78 27.10 28.17
53.92 53.04 52.56 52.16 51.91 51.69 51.52 51.30 51.02 50.62 49.85 48.45 46.34 44.56 43.22 42.11 41.09 40.52 39.69 38.73 37.67 36.44 35.16 34.08 33.49 33.49 33.47 33.26 33.05 32.98 33.18 33.54 34.04 34.13 34.13 34.08 34.20 34.03 33.75 33.15 33.01 33.07 33.10 33.39 33.31 33.08 32.83 32.44 32.02 31.42 30.59 29.23 28.66 27.91 27.21 26.30 25.40 24.79 24.38 24.17 24.09 24.12 24.35 24.82 25.26 25.41 25.62 25.97 27.03
54.26 53.20 52.56 52.35 52.16 52.08 51.67 51.27 50.52 49.26 47.66 45.68 43.81 42.24 41.22 40.20 39.63 38.98 38.28 37.19 35.97 34.93 33.89 33.00 32.74 32.56 32.49 32.13 31.84 31.40 31.33 31.51 32.08 32.58 32.96 33.05 33.32 33.37 33.30 32.64 32.70 32.62 32.80 33.16 33.15 32.94 32.65 32.28 31.86 31.25 30.42 29.12 28.43 27.74 26.91 25.97 24.81 24.00 23.56 23.47 23.41 23.29 23.20 23.38 23.85 24.20 24.44 24.71 25.09
MSLP
1003.15 1003.35 1003.59 1003.83 1004.07 1004.27 1004.43 1004.59 1004.75 1004.83 1004.99 1005.15 1005.35 1005.59 1005.71 1005.83 1005.91 1006.03 1006.27 1006.59 1006.91 1007.23 1007.43 1007.59 1007.75 1008.03 1008.27 1008.51 1008.75 1008.95 1009.15 1009.31 1009.59 1009.87 1010.19 1010.43 1010.75 1011.03 1011.35 1011.71 1011.99 1012.27 1012.59 1012.83 1013.03 1013.15 1013.31 1013.59 1013.91 1014.15 1014.31 1014.47 1014.63 1014.83 1014.95 1015.03 1015.07 1014.99 1014.87 1014.87 1015.07 1015.27 1015.51 1015.75 1015.91 1016.15 1016.31 1016.47 1016.51
1003.11 1003.23 1003.43 1003.71 1003.95 1004.15 1004.31 1004.55 1004.75 1004.87 1005.03 1005.19 1005.39 1005.55 1005.59 1005.67 1005.75 1005.99 1006.35 1006.75 1006.99 1007.23 1007.43 1007.63 1007.83 1008.03 1008.27 1008.51 1008.75 1009.03 1009.19 1009.31 1009.59 1009.87 1010.15 1010.47 1010.83 1011.15 1011.43 1011.71 1011.95 1012.19 1012.47 1012.67 1012.75 1012.95 1013.27 1013.63 1013.87 1014.15 1014.35 1014.51 1014.75 1015.07 1015.31 1015.19 1014.87 1014.63 1014.59 1014.79 1015.03 1015.23 1015.43 1015.63 1015.79 1015.99 1016.15 1016.31 1016.43
1003.07 1003.19 1003.39 1003.59 1003.75 1003.91 1004.11 1004.43 1004.67 1004.87 1005.03 1005.23 1005.39 1005.51 1005.59 1005.71 1005.91 1006.23 1006.55 1006.79 1007.03 1007.27 1007.51 1007.71 1007.87 1008.03 1008.27 1008.55 1008.83 1009.03 1009.23 1009.35 1009.59 1009.87 1010.19 1010.59 1010.95 1011.31 1011.55 1011.75 1011.99 1012.19 1012.35 1012.43 1012.55 1012.87 1013.31 1013.59 1013.87 1014.11 1014.31 1014.59 1015.03 1015.35 1015.43 1015.19 1014.71 1014.43 1014.47 1014.75 1014.95 1015.15 1015.39 1015.59 1015.75 1015.91 1016.07 1016.23 1016.39
1003.11 1003.19 1003.35 1003.47 1003.51 1003.63 1003.87 1004.27 1004.55 1004.75 1004.99 1005.23 1005.43 1005.59 1005.75 1005.91 1006.15 1006.35 1006.59 1006.87 1007.11 1007.31 1007.51 1007.71 1007.87 1008.03 1008.31 1008.55 1008.83 1009.03 1009.23 1009.43 1009.59 1009.87 1010.27 1010.67 1011.03 1011.31 1011.59 1011.79 1011.99 1012.15 1012.23 1012.31 1012.59 1012.95 1013.31 1013.59 1013.87 1014.11 1014.47 1014.91 1015.35 1015.47 1015.27 1014.87 1014.47 1014.31 1014.39 1014.63 1014.83 1015.07 1015.31 1015.51 1015.67 1015.87 1016.03 1016.15 1016.31
1003.15 1003.27 1003.39 1003.43 1003.43 1003.59 1003.87 1004.23 1004.51 1004.75 1004.99 1005.23 1005.43 1005.67 1005.87 1006.03 1006.23 1006.47 1006.75 1006.99 1007.15 1007.35 1007.51 1007.67 1007.83 1008.03 1008.31 1008.55 1008.75 1009.03 1009.23 1009.43 1009.63 1009.95 1010.35 1010.75 1011.07 1011.31 1011.59 1011.87 1011.99 1012.07 1012.15 1012.39 1012.71 1013.03 1013.31 1013.63 1013.99 1014.39 1014.87 1015.31 1015.47 1015.31 1014.87 1014.47 1014.15 1014.15 1014.35 1014.59 1014.79 1015.03 1015.23 1015.43 1015.59 1015.75 1015.95 1016.11 1016.23
1003.11 1003.27 1003.43 1003.47 1003.59 1003.75 1004.03 1004.31 1004.55 1004.79 1005.03 1005.23 1005.43 1005.67 1005.87 1006.07 1006.27 1006.51 1006.75 1006.99 1007.15 1007.35 1007.55 1007.75 1007.87 1008.07 1008.31 1008.59 1008.75 1009.03 1009.23 1009.43 1009.71 1010.03 1010.43 1010.79 1011.07 1011.35 1011.67 1011.91 1012.03 1012.11 1012.31 1012.59 1012.83 1013.11 1013.43 1013.83 1014.31 1014.83 1015.23 1015.51 1015.43 1015.03 1014.51 1014.03 1013.95 1014.11 1014.39 1014.67 1014.87 1015.03 1015.15 1015.35 1015.55 1015.71 1015.87 1016.03 1016.19
1003.07 1003.27 1003.43 1003.59 1003.75 1003.95 1004.15 1004.47 1004.67 1004.87 1005.07 1005.31 1005.47 1005.67 1005.83 1006.03 1006.27 1006.51 1006.75 1006.91 1007.15 1007.43 1007.63 1007.83 1007.95 1008.11 1008.31 1008.55 1008.75 1009.03 1009.23 1009.51 1009.75 1010.07 1010.47 1010.83 1011.15 1011.43 1011.75 1011.95 1012.07 1012.27 1012.51 1012.79 1013.11 1013.43 1013.75 1014.15 1014.59 1015.03 1015.31 1015.35 1015.19 1014.79 1014.27 1013.79 1013.83 1014.03 1014.39 1014.67 1014.83 1014.99 1015.15 1015.31 1015.47 1015.67 1015.87 1016.03 1016.19
1003.19 1003.31 1003.51 1003.71 1003.87 1004.07 1004.31 1004.51 1004.75 1004.95 1005.15 1005.31 1005.51 1005.67 1005.87 1006.03 1006.27 1006.47 1006.71 1006.95 1007.15 1007.43 1007.67 1007.83 1007.91 1008.07 1008.27 1008.51 1008.75 1009.03 1009.27 1009.51 1009.79 1010.15 1010.55 1010.87 1011.19 1011.55 1011.83 1012.03 1012.27 1012.51 1012.79 1013.15 1013.51 1013.87 1014.15 1014.43 1014.59 1014.75 1014.91 1014.91 1014.71 1014.31 1013.95 1013.75 1013.79 1014.07 1014.39 1014.59 1014.79 1014.95 1015.07 1015.23 1015.43 1015.63 1015.83 1016.03 1016.15
1003.39 1003.51 1003.67 1003.87 1004.03 1004.23 1004.43 1004.59 1004.75 1004.95 1005.15 1005.35 1005.59 1005.75 1005.95 1006.15 1006.31 1006.51 1006.75 1006.91 1007.15 1007.39 1007.63 1007.87 1007.99 1008.11 1008.27 1008.51 1008.79 1009.07 1009.31 1009.59 1009.87 1010.23 1010.63 1010.99 1011.31 1011.59 1011.91 1012.15 1012.47 1012.75 1013.07 1013.39 1013.75 1013.99 1014.15 1014.27 1014.31 1014.35 1014.39 1014.31 1014.07 1013.83 1013.71 1013.75 1013.87 1014.11 1014.35 1014.59 1014.79 1014.95 1015.11 1015.27 1015.43 1015.59 1015.79 1015.95 1016.15
1003.51 1003.67 1003.83 1004.03 1004.23 1004.35 1004.51 1004.67 1004.87 1005.03 1005.23 1005.43 1005.67 1005.91 1006.11 1006.27 1006.43 1006.59 1006.75 1006.91 1007.15 1007.43 1007.67 1007.87 1008.03 1008.19 1008.43 1008.63 1008.91 1009.15 1009.43 1009.63 1009.95 1010.31 1010.67 1011.03 1011.31 1011.59 1011.91 1012.27 1012.59 1012.87 1013.19 1013.43 1013.63 1013.75 1013.83 1013.87 1013.91 1013.99 1013.95 1013.79 1013.63 1013.55 1013.59 1013.75 1013.99 1014.23 1014.47 1014.63 1014.83 1015.03 1015.23 1015.35 1015.47 1015.63 1015.79 1015.91 1016.03
1003.59 1003.75 1003.91 1004.15 1004.31 1004.47 1004.59 1004.79 1005.03 1005.19 1005.39 1005.59 1005.83 1006.07 1006.27 1006.39 1006.55 1006.71 1006.87 1007.03 1007.19 1007.43 1007.67 1007.91 1008.11 1008.31 1008.55 1008.83 1009.07 1009.31 1009.59 1009.83 1010.11 1010.43 1010.75 1011.03 1011.31 1011.59 1011.91 1012.23 1012.47 1012.75 1012.95 1013.11 1013.19 1013.35 1013.43 1013.51 1013.59 1013.59 1013.59 1013.51 1013.43 1013.43 1013.59 1013.83 1014.11 1014.35 1014.55 1014.71 1014.87 1015.11 1015.31 1015.43 1015.55 1015.63 1015.75 1015.83 1015.91
1003.71 1003.87 1004.03 1004.23 1004.43 1004.59 1004.75 1004.87 1005.15 1005.31 1005.47 1005.67 1005.91 1006.15 1006.31 1006.47 1006.63 1006.79 1006.99 1007.11 1007.27 1007.47 1007.75 1008.03 1008.19 1008.43 1008.63 1008.95 1009.23 1009.47 1009.75 1009.99 1010.27 1010.51 1010.75 1011.03 1011.31 1011.59 1011.83 1012.03 1012.19 1012.39 1012.55 1012.67 1012.83 1012.91 1013.03 1013.11 1013.23 1013.31 1013.31 1013.31 1013.31 1013.43 1013.63 1013.99 1014.27 1014.47 1014.63 1014.79 1014.95 1015.15 1015.31 1015.43 1015.47 1015.51 1015.55 1015.63 1015.75
1003.79 1003.99 1004.15 1004.35 1004.51 1004.67 1004.83 1005.03 1005.19 1005.39 1005.59 1005.79 1005.99 1006.15 1006.35 1006.55 1006.75 1006.91 1007.03 1007.23 1007.35 1007.59 1007.87 1008.15 1008.35 1008.59 1008.79 1009.07 1009.31 1009.55 1009.79 1010.07 1010.35 1010.59 1010.79 1011.03 1011.39 1011.63 1011.75 1011.87 1011.95 1012.07 1012.23 1012.43 1012.55 1012.63 1012.71 1012.83 1012.95 1013.07 1013.15 1013.23 1013.31 1013.47 1013.75 1014.11 1014.43 1014.59 1014.75 1014.87 1014.99 1015.15 1015.23 1015.27 1015.31 1015.31 1015.35 1015.47 1015.59
1003.87 1004.07 1004.27 1004.43 1004.59 1004.75 1004.91 1005.11 1005.31 1005.47 1005.67 1005.87 1006.03 1006.23 1006.47 1006.67 1006.87 1007.03 1007.15 1007.31 1007.47 1007.71 1007.95 1008.27 1008.55 1008.75 1008.99 1009.15 1009.35 1009.51 1009.75 1010.11 1010.39 1010.59 1010.83 1011.15 1011.51 1011.71 1011.75 1011.75 1011.83 1011.95 1012.07 1012.23 1012.31 1012.39 1012.47 1012.59 1012.75 1012.87 1013.03 1013.15 1013.35 1013.59 1013.91 1014.23 1014.47 1014.59 1014.71 1014.79 1014.87 1014.99 1014.99 1015.03 1015.07 1015.15 1015.31 1015.43 1015.47
1003.99 1004.15 1004.31 1004.47 1004.63 1004.83 1004.99 1005.15 1005.39 1005.59 1005.79 1005.95 1006.15 1006.31 1006.51 1006.75 1006.95 1007.11 1007.27 1007.43 1007.59 1007.83 1008.07 1008.35 1008.67 1008.91 1009.15 1009.31 1009.43 1009.59 1009.83 1010.11 1010.39 1010.59 1010.87 1011.31 1011.59 1011.67 1011.59 1011.63 1011.75 1011.83 1011.91 1012.03 1012.11 1012.15 1012.27 1012.47 1012.63 1012.75 1012.91 1013.15 1013.43 1013.75 1014.07 1014.31 1014.47 1014.51 1014.55 1014.59 1014.67 1014.71 1014.75 1014.79 1014.91 1015.03 1015.19 1015.31 1015.35
1004.03 1004.19 1004.39 1004.55 1004.71 1004.87 1005.03 1005.23 1005.43 1005.67 1005.87 1006.03 1006.19 1006.39 1006.59 1006.79 1007.03 1007.15 1007.35 1007.55 1007.75 1007.95 1008.19 1008.47 1008.75 1009.03 1009.27 1009.47 1009.63 1009.83 1010.03 1010.27 1010.47 1010.71 1011.03 1011.35 1011.51 1011.47 1011.43 1011.47 1011.55 1011.63 1011.75 1011.83 1011.91 1012.03 1012.19 1012.47 1012.63 1012.79 1012.99 1013.31 1013.63 1013.91 1014.15 1014.31 1014.35 1014.35 1014.39 1014.39 1014.43 1014.47 1014.59 1014.67 1014.83 1014.95 1015.07 1015.15 1015.19
1004.15 1004.31 1004.47 1004.59 1004.75 1004.95 1005.15 1005.31 1005.51 1005.75 1005.91 1006.11 1006.31 1006.47 1006.67 1006.87 1007.11 1007.31 1007.43 1007.59 1007.83 1008.03 1008.31 1008.55 1008.83 1009.11 1009.43 1009.67 1009.87 1010.07 1010.31 1010.47 1010.59 1010.79 1011.03 1011.15 1011.23 1011.23 1011.27 1011.31 1011.39 1011.47 1011.59 1011.67 1011.83 1012.07 1012.35 1012.59 1012.71 1012.87 1013.11 1013.47 1013.75 1013.99 1014.11 1014.15 1014.19 1014.23 1014.23 1014.27 1014.31 1014.43 1014.47 1014.59 1014.75 1014.87 1014.95 1015.03 1015.07
1004.19 1004.35 1004.47 1004.67 1004.79 1004.99 1005.15 1005.35 1005.55 1005.75 1005.95 1006.15 1006.35 1006.55 1006.75 1006.91 1007.15 1007.31 1007.55 1007.75 1007.91 1008.15 1008.39 1008.71 1008.95 1009.23 1009.51 1009.79 1010.07 1010.31 1010.47 1010.59 1010.67 1010.75 1010.79 1010.87 1010.91 1010.99 1011.07 1011.15 1011.31 1011.39 1011.55 1011.75 1011.99 1012.31 1012.59 1012.67 1012.79 1012.95 1013.23 1013.59 1013.75 1013.83 1013.87 1013.95 1014.03 1014.11 1014.15 1014.23 1014.31 1014.39 1014.47 1014.55 1014.59 1014.71 1014.83 1014.91 1015.03
1004.27 1004.39 1004.55 1004.71 1004.87 1005.03 1005.23 1005.39 1005.59 1005.79 1005.99 1006.15 1006.39 1006.59 1006.79 1006.99 1007.15 1007.39 1007.59 1007.87 1008.03 1008.23 1008.47 1008.79 1009.11 1009.39 1009.63 1009.87 1010.15 1010.39 1010.55 1010.55 1010.47 1010.47 1010.47 1010.59 1010.67 1010.83 1010.99 1011.15 1011.31 1011.43 1011.67 1011.95 1012.23 1012.47 1012.59 1012.71 1012.87 1013.07 1013.31 1013.47 1013.59 1013.63 1013.75 1013.87 1013.99 1014.07 1014.15 1014.27 1014.31 1014.35 1014.43 1014.47 1014.55 1014.63 1014.75 1014.87 1015.03
1004.31 1004.47 1004.63 1004.75 1004.91 1005.11 1005.31 1005.43 1005.63 1005.83 1006.03 1006.23 1006.43 1006.63 1006.87 1007.07 1007.27 1007.47 1007.71 1007.99 1008.19 1008.39 1008.59 1008.87 1009.19 1009.47 1009.75 1009.99 1010.15 1010.31 1010.47 1010.39 1010.23 1010.19 1010.27 1010.43 1010.59 1010.79 1010.99 1011.19 1011.43 1011.63 1011.87 1012.11 1012.27 1012.35 1012.47 1012.63 1012.79 1012.95 1013.11 1013.23 1013.35 1013.51 1013.71 1013.83 1013.95 1014.03 1014.11 1014.19 1014.23 1014.31 1014.35 1014.47 1014.59 1014.71 1014.87 1015.03 1015.27
1004.39 1004.59 1004.75 1004.87 1004.99 1005.15 1005.35 1005.51 1005.71 1005.87 1006.07 1006.31 1006.51 1006.71 1006.91 1007.15 1007.35 1007.59 1007.79 1008.03 1008.31 1008.55 1008.75 1009.03 1009.27 1009.51 1009.75 1009.91 1010.03 1010.23 1010.31 1010.19 1010.07 1010.11 1010.27 1010.47 1010.63 1010.83 1011.03 1011.23 1011.51 1011.75 1011.87 1011.99 1012.03 1012.15 1012.27 1012.43 1012.55 1012.67 1012.87 1013.07 1013.27 1013.43 1013.63 1013.79 1013.87 1013.95 1014.03 1014.07 1014.15 1014.27 1014.39 1014.55 1014.75 1014.91 1015.15 1015.43 1015.67
1004.43 1004.59 1004.79 1004.95 1005.07 1005.27 1005.43 1005.59 1005.75 1005.95 1006.15 1006.35 1006.59 1006.75 1006.99 1007.19 1007.43 1007.63 1007.87 1008.15 1008.39 1008.63 1008.87 1009.15 1009.31 1009.51 1009.59 1009.67 1009.75 1009.95 1010.07 1010.03 1010.07 1010.15 1010.31 1010.47 1010.67 1010.83 1011.03 1011.27 1011.47 1011.63 1011.71 1011.75 1011.75 1011.83 1011.99 1012.19 1012.31 1012.51 1012.75 1013.03 1013.19 1013.39 1013.51 1013.63 1013.75 1013.87 1013.95 1014.07 1014.19 1014.35 1014.55 1014.75 1015.03 1015.31 1015.59 1015.87 1016.15
1004.47 1004.63 1004.83 1005.03 1005.15 1005.35 1005.55 1005.75 1005.87 1006.07 1006.27 1006.47 1006.67 1006.87 1007.03 1007.27 1007.47 1007.71 1007.99 1008.23 1008.47 1008.75 1008.99 1009.19 1009.35 1009.47 1009.43 1009.35 1009.43 1009.59 1009.79 1009.95 1010.07 1010.19 1010.31 1010.43 1010.59 1010.75 1010.99 1011.19 1011.35 1011.43 1011.43 1011.43 1011.43 1011.59 1011.83 1012.11 1012.31 1012.47 1012.71 1012.95 1013.11 1013.27 1013.39 1013.47 1013.63 1013.79 1013.95 1014.15 1014.43 1014.67 1014.91 1015.15 1015.43 1015.75 1016.11 1016.39 1016.59
1004.47 1004.67 1004.87 1005.03 1005.23 1005.43 1005.59 1005.83 1005.99 1006.15 1006.35 1006.55 1006.75 1006.87 1007.11 1007.31 1007.59 1007.79 1008.03 1008.31 1008.59 1008.79 1009.03 1009.15 1009.31 1009.31 1009.23 1009.15 1009.27 1009.43 1009.67 1009.87 1010.03 1010.15 1010.27 1010.35 1010.51 1010.71 1010.87 1011.03 1011.11 1011.15 1011.19 1011.23 1011.43 1011.63 1011.87 1012.11 1012.31 1012.47 1012.63 1012.79 1012.95 1013.11 1013.27 1013.43 1013.63 1013.83 1014.07 1014.31 1014.63 1015.03 1015.35 1015.67 1015.91 1016.23 1016.55 1016.75 1016.87
1004.51 1004.75 1004.87 1005.07 1005.31 1005.47 1005.67 1005.87 1006.03 1006.23 1006.43 1006.59 1006.75 1006.95 1007.15 1007.39 1007.59 1007.87 1008.15 1008.35 1008.59 1008.79 1008.87 1008.99 1009.07 1009.07 1009.03 1009.11 1009.31 1009.51 1009.75 1009.95 1010.15 1010.31 1010.43 1010.51 1010.51 1010.59 1010.75 1010.87 1010.95 1011.03 1011.11 1011.31 1011.55 1011.75 1011.91 1012.07 1012.27 1012.43 1012.59 1012.75 1012.95 1013.15 1013.43 1013.67 1013.87 1014.11 1014.31 1014.55 1014.87 1015.31 1015.71 1016.07 1016.39 1016.63 1016.87 1017.03 1017.15
1004.51 1004.75 1004.91 1005.11 1005.31 1005.55 1005.75 1005.91 1006.11 1006.31 1006.47 1006.63 1006.83 1007.03 1007.23 1007.43 1007.63 1007.87 1008.15 1008.31 1008.47 1008.59 1008.71 1008.79 1008.91 1008.99 1009.03 1009.23 1009.43 1009.67 1009.87 1010.03 1010.19 1010.31 1010.47 1010.55 1010.59 1010.67 1010.75 1010.87 1011.03 1011.15 1011.31 1011.51 1011.75 1011.91 1012.07 1012.19 1012.35 1012.51 1012.63 1012.75 1013.03 1013.31 1013.63 1013.95 1014.23 1014.39 1014.55 1014.75 1015.11 1015.47 1015.87 1016.31 1016.71 1016.99 1017.15 1017.31 1017.47
1004.55 1004.75 1004.99 1005.15 1005.39 1005.55 1005.75 1005.99 1006.19 1006.35 1006.55 1006.75 1006.91 1007.11 1007.27 1007.43 1007.55 1007.75 1007.99 1008.15 1008.19 1008.31 1008.47 1008.63 1008.79 1008.95 1009.11 1009.31 1009.51 1009.67 1009.83 1009.95 1010.11 1010.19 1010.31 1010.39 1010.51 1010.63 1010.75 1010.87 1011.03 1011.23 1011.47 1011.75 1011.99 1012.11 1012.19 1012.31 1012.47 1012.67 1012.83 1012.95 1013.15 1013.47 1013.87 1014.31 1014.59 1014.75 1014.95 1015.19 1015.51 1015.83 1016.19 1016.59 1016.95 1017.27 1017.51 1017.71 1017.75
1004.59 1004.79 1004.99 1005.19 1005.39 1005.59 1005.83 1006.03 1006.23 1006.43 1006.63 1006.83 1006.99 1007.15 1007.23 1007.31 1007.31 1007.43 1007.63 1007.75 1007.91 1008.11 1008.31 1008.47 1008.63 1008.83 1009.03 1009.23 1009.39 1009.51 1009.63 1009.83 1009.99 1010.11 1010.23 1010.35 1010.47 1010.63 1010.75 1010.91 1011.11 1011.51 1011.99 1012.23 1012.23 1012.19 1012.23 1012.31 1012.47 1012.75 1012.95 1013.15 1013.43 1013.87 1014.31 1014.67 1014.99 1015.23 1015.51 1015.79 1016.11 1016.35 1016.67 1016.99 1017.31 1017.63 1017.83 1017.95 1018.03
1004.59 1004.79 1005.03 1005.23 1005.43 1005.63 1005.83 1006.03 1006.23 1006.43 1006.63 1006.87 1006.99 1007.15 1007.15 1007.11 1007.15 1007.27 1007.43 1007.59 1007.75 1007.95 1008.11 1008.31 1008.47 1008.71 1008.95 1009.11 1009.27 1009.43 1009.59 1009.75 1009.91 1010.07 1010.23 1010.43 1010.55 1010.71 1010.95 1011.31 1011.87 1012.15 1012.23 1012.31 1012.27 1012.23 1012.23 1012.31 1012.47 1012.67 1012.91 1013.27 1013.67 1014.11 1014.55 1014.99 1015.39 1015.75 1016.07 1016.43 1016.75 1016.95 1017.15 1017.39 1017.67 1017.87 1018.03 1018.19 1018.27
1004.63 1004.83 1005.03 1005.23 1005.43 1005.63 1005.83 1006.03 1006.19 1006.47 1006.67 1006.87 1006.99 1007.11 1007.11 1007.03 1007.07 1007.19 1007.35 1007.55 1007.63 1007.75 1007.91 1008.15 1008.39 1008.71 1008.95 1009.15 1009.27 1009.43 1009.63 1009.79 1009.87 1010.03 1010.27 1010.55 1010.75 1011.23 1011.79 1012.23 1012.43 1012.47 1012.47 1012.35 1012.23 1012.15 1012.27 1012.47 1012.67 1012.91 1013.19 1013.51 1013.95 1014.47 1015.03 1015.51 1015.91 1016.31 1016.67 1017.03 1017.31 1017.51 1017.67 1017.87 1018.03 1018.19 1018.31 1018.43 1018.51
1004.67 1004.87 1005.03 1005.23 1005.43 1005.63 1005.83 1006.03 1006.23 1006.47 1006.67 1006.87 1006.99 1007.03 1007.03 1007.03 1007.11 1007.15 1007.31 1007.43 1007.59 1007.75 1007.95 1008.15 1008.47 1008.75 1008.99 1009.15 1009.35 1009.55 1009.75 1009.87 1010.03 1010.15 1010.43 1010.83 1011.39 1011.99 1012.43 1012.67 1012.87 1012.99 1012.87 1012.59 1012.43 1012.43 1012.59 1012.87 1013.11 1013.35 1013.59 1013.83 1014.31 1014.87 1015.43 1015.99 1016.39 1016.79 1017.19 1017.59 1017.79 1017.95 1018.11 1018.31 1018.47 1018.59 1018.63 1018.71 1018.79
1004.67 1004.87 1005.07 1005.31 1005.47 1005.67 1005.87 1006.03 1006.27 1006.47 1006.71 1006.87 1006.95 1006.99 1007.03 1007.07 1007.15 1007.23 1007.31 1007.47 1007.67 1007.87 1008.07 1008.27 1008.51 1008.75 1008.91 1009.07 1009.43 1009.79 1010.07 1010.31 1010.51 1010.71 1010.95 1011.31 1011.87 1012.39 1012.79 1013.15 1013.51 1013.59 1013.39 1013.15 1012.95 1012.95 1013.07 1013.31 1013.55 1013.75 1013.99 1014.27 1014.79 1015.39 1015.95 1016.39 1016.87 1017.31 1017.71 1017.99 1018.19 1018.39 1018.55 1018.71 1018.87 1018.99 1019.03 1019.07 1019.15
1004.63 1004.83 1005.03 1005.27 1005.43 1005.63 1005.87 1006.11 1006.31 1006.51 1006.71 1006.79 1006.87 1006.87 1006.95 1007.03 1007.15 1007.31 1007.51 1007.75 1007.95 1008.15 1008.47 1008.87 1009.19 1009.55 1009.83 1010.03 1010.27 1010.59 1010.87 1011.15 1011.31 1011.43 1011.51 1011.75 1012.15 1012.63 1013.19 1013.75 1013.99 1014.07 1013.99 1013.75 1013.59 1013.51 1013.59 1013.79 1013.99 1014.19 1014.47 1014.79 1015.31 1015.87 1016.43 1016.83 1017.27 1017.75 1018.15 1018.47 1018.71 1018.87 1019.03 1019.15 1019.27 1019.39 1019.47 1019.55 1019.59
1004.51 1004.75 1004.95 1005.15 1005.39 1005.59 1005.83 1006.03 1006.27 1006.47 1006.67 1006.79 1006.83 1006.87 1006.95 1007.07 1007.31 1007.59 1007.87 1008.15 1008.47 1008.75 1009.11 1009.55 1009.91 1010.27 1010.51 1010.71 1010.87 1011.11 1011.35 1011.59 1011.71 1011.79 1011.91 1012.07 1012.47 1013.03 1013.59 1014.03 1014.39 1014.59 1014.51 1014.27 1014.11 1014.03 1014.11 1014.23 1014.39 1014.59 1014.87 1015.23 1015.79 1016.35 1016.87 1017.23 1017.67 1018.15 1018.55 1018.87 1019.15 1019.35 1019.51 1019.59 1019.71 1019.83 1019.91 1019.99 1020.03
1004.35 1004.59 1004.83 1005.03 1005.23 1005.47 1005.71 1005.95 1006.15 1006.43 1006.59 1006.75 1006.83 1006.87 1006.99 1007.23 1007.55 1007.95 1008.31 1008.59 1008.83 1009.15 1009.59 1009.99 1010.31 1010.59 1010.83 1011.07 1011.27 1011.55 1011.83 1011.99 1012.15 1012.31 1012.47 1012.67 1012.95 1013.35 1013.87 1014.39 1014.79 1014.95 1014.87 1014.71 1014.59 1014.51 1014.59 1014.67 1014.83 1014.95 1015.19 1015.63 1016.27 1016.83 1017.27 1017.63 1018.11 1018.55 1018.87 1019.15 1019.47 1019.75 1019.91 1020.03 1020.19 1020.31 1020.43 1020.47 1020.47
1004.19 1004.47 1004.67 1004.87 1005.11 1005.35 1005.59 1005.79 1006.03 1006.31 1006.55 1006.75 1006.87 1006.95 1007.15 1007.43 1007.87 1008.31 1008.59 1008.79 1009.07 1009.43 1009.91 1010.31 1010.55 1010.87 1011.31 1011.67 1011.87 1012.07 1012.23 1012.35 1012.55 1012.75 1012.99 1013.15 1013.35 1013.71 1014.19 1014.75 1015.07 1015.23 1015.23 1015.11 1015.03 1014.99 1015.03 1015.11 1015.19 1015.27 1015.47 1015.91 1016.59 1017.15 1017.59 1018.03 1018.51 1018.87 1019.15 1019.43 1019.75 1020.03 1020.23 1020.43 1020.59 1020.71 1020.79 1020.87 1020.87
1004.03 1004.27 1004.51 1004.75 1005.03 1005.23 1005.43 1005.71 1005.95 1006.23 1006.47 1006.71 1006.83 1007.03 1007.39 1007.83 1008.27 1008.55 1008.75 1009.03 1009.35 1009.87 1010.35 1010.75 1011.15 1011.59 1011.91 1012.19 1012.39 1012.59 1012.71 1012.79 1012.95 1013.19 1013.43 1013.59 1013.75 1014.11 1014.55 1014.99 1015.31 1015.55 1015.59 1015.55 1015.43 1015.43 1015.43 1015.51 1015.59 1015.59 1015.75 1016.19 1016.87 1017.43 1017.87 1018.31 1018.75 1019.15 1019.43 1019.71 1020.03 1020.31 1020.51 1020.67 1020.83 1020.95 1021.07 1021.15 1021.23
1003.87 1004.15 1004.39 1004.67 1004.91 1005.15 1005.43 1005.71 1005.95 1006.19 1006.47 1006.71 1006.95 1007.31 1007.75 1008.15 1008.55 1008.87 1009.07 1009.31 1009.75 1010.31 1010.87 1011.31 1011.75 1012.07 1012.35 1012.67 1012.87 1013.07 1013.19 1013.31 1013.43 1013.67 1013.91 1014.07 1014.31 1014.59 1014.87 1015.23 1015.59 1015.87 1015.99 1015.95 1015.87 1015.87 1015.87 1015.95 1016.03 1016.03 1016.15 1016.51 1017.03 1017.55 1018.03 1018.51 1018.95 1019.35 1019.71 1020.03 1020.35 1020.63 1020.79 1020.95 1021.07 1021.23 1021.39 1021.55 1021.63
1003.67 1003.95 1004.27 1004.55 1004.83 1005.07 1005.35 1005.67 1005.95 1006.19 1006.51 1006.87 1007.31 1007.75 1008.07 1008.43 1008.87 1009.23 1009.51 1009.75 1010.15 1010.63 1011.15 1011.59 1012.11 1012.55 1012.87 1013.15 1013.31 1013.47 1013.67 1013.87 1014.03 1014.19 1014.39 1014.63 1014.91 1015.11 1015.27 1015.47 1015.87 1016.19 1016.35 1016.35 1016.31 1016.31 1016.35 1016.43 1016.47 1016.51 1016.59 1016.83 1017.23 1017.71 1018.15 1018.63 1019.11 1019.55 1019.95 1020.31 1020.71 1021.03 1021.23 1021.35 1021.43 1021.59 1021.75 1021.91 1021.99
1003.43 1003.75 1004.15 1004.47 1004.75 1005.03 1005.31 1005.63 1005.95 1006.31 1006.75 1007.19 1007.71 1008.15 1008.55 1008.87 1009.27 1009.59 1009.87 1010.19 1010.59 1011.03 1011.47 1012.03 1012.59 1013.11 1013.35 1013.47 1013.59 1013.83 1014.07 1014.35 1014.55 1014.71 1014.87 1015.11 1015.35 1015.47 1015.59 1015.79 1016.15 1016.47 1016.67 1016.75 1016.75 1016.75 1016.79 1016.87 1016.91 1016.91 1016.99 1017.15 1017.47 1017.87 1018.31 1018.71 1019.15 1019.67 1020.15 1020.55 1020.99 1021.39 1021.67 1021.83 1021.91 1022.03 1022.19 1022.35 1022.47
1003.31 1003.63 1003.99 1004.31 1004.63 1004.95 1005.31 1005.67 1006.15 1006.63 1007.15 1007.59 1008.15 1008.59 1008.95 1009.23 1009.59 1009.87 1010.19 1010.59 1011.07 1011.51 1012.03 1012.59 1013.15 1013.47 1013.63 1013.75 1013.95 1014.15 1014.43 1014.75 1015.03 1015.23 1015.39 1015.51 1015.71 1015.87 1015.99 1016.15 1016.39 1016.67 1016.91 1017.03 1017.11 1017.15 1017.15 1017.27 1017.31 1017.35 1017.43 1017.59 1017.83 1018.15 1018.47 1018.79 1019.27 1019.83 1020.39 1020.87 1021.27 1021.63 1021.95 1022.15 1022.31 1022.47 1022.63 1022.83 1022.99
Wind_Speed
10 10 9 8 7 6 5 5 4 5 5 6 6 6 6 7 7 7 7 7 7 6 6 6 7 8 9 11 11 10 10 11 12 11 11 11 11 11 11 11 12 13 14 13 14 13 12 12 10 8 7 6 7 7 7 8 10 10 9 8 7 7 8 9 8 8 8 8 7
10 10 10 9 8 7 7 6 5 5 5 5 5 6 6 6 6 6 6 7 6 6 6 5 7 9 10 12 12 11 11 11 12 12 11 11 10 11 11 11 12 13 13 14 13 11 10 10 9 7 6 5 5 6 8 10 10 10 9 9 7 7 7 8 8 8 8 8 6
9 10 10 10 10 9 8 7 7 7 7 6 5 5 5 5 5 6 6 6 7 6 6 5 7 9 12 13 12 11 11 11 12 12 11 10 10 10 10 10 12 12 12 12 11 10 9 9 8 7 5 4 5 7 9 11 9 9 9 9 7 6 6 6 6 6 6 6 6
9 9 10 11 12 11 10 8 8 8 8 7 6 6 6 5 5 6 6 6 7 7 6 6 8 10 11 12 12 12 11 11 13 13 12 10 10 10 10 10 11 11 11 10 10 9 9 8 6 5 5 6 8 9 10 9 8 7 7 7 6 6 6 6 6 5 5 5 5
9 9 9 9 10 11 10 9 9 9 8 7 7 6 6 5 5 6 6 7 7 7 7 8 8 9 11 12 13 13 12 12 12 12 11 11 10 10 9 9 10 10 10 9 9 9 8 8 6 5 5 7 9 10 10 9 9 7 6 5 5 5 5 6 5 5 5 5 5
9 9 8 8 9 9 9 9 10 9 8 8 8 8 7 6 6 7 7 7 8 8 8 8 9 10 11 12 12 13 13 12 12 11 11 11 10 10 10 9 10 9 9 8 9 9 9 8 6 6 7 8 10 10 10 10 9 8 6 5 5 5 5 6 5 5 5 5 6
10 10 9 9 10 9 9 9 9 9 9 8 9 9 9 8 9 9 9 9 9 8 7 7 8 10 11 12 12 12 12 12 12 12 12 11 11 11 10 10 10 10 9 9 9 9 10 11 9 9 9 9 9 9 9 8 8 8 7 6 5 5 5 6 5 5 5 7 7
9 10 10 10 10 10 11 11 10 9 9 8 9 10 10 10 11 11 10 10 9 8 7 6 9 11 12 12 11 12 12 13 12 12 12 11 12 12 11 11 11 11 11 12 12 13 14 13 11 10 10 9 7 7 7 8 9 8 8 8 6 5 5 5 5 5 6 7 8
9 9 10 10 10 10 11 11 10 10 9 9 10 10 11 11 11 11 10 10 9 9 8 7 9 11 12 12 12 12 12 13 13 13 12 12 13 13 13 12 12 13 14 15 16 18 17 14 11 9 9 8 7 7 7 8 9 9 8 8 6 5 5 5 5 5 6 7 8
9 9 10 10 9 10 10 10 10 10 10 11 11 11 10 9 10 10 9 9 9 9 9 8 9 11 11 12 11 11 12 13 13 13 13 13 14 15 14 13 15 16 17 17 17 18 17 12 10 9 8 8 7 8 8 8 8 8 8 6 6 6 5 5 5 6 6 7 8
10 10 10 10 10 10 10 10 10 10 10 11 12 11 10 9 9 9 9 9 10 10 10 9 10 10 11 10 10 10 11 11 12 12 13 13 14 15 16 16 18 19 19 17 16 14 13 10 10 9 9 7 7 7 8 8 8 8 7 6 6 6 6 6 6 7 7 8 9
10 10 10 10 10 10 10 10 9 9 10 11 12 11 11 10 10 10 9 10 11 11 11 10 10 10 10 9 9 9 10 12 12 12 13 13 13 14 16 16 18 18 17 16 14 12 10 9 9 9 8 7 6 6 7 7 7 8 8 7 7 7 8 9 9 9 9 9 9
11 11 11 11 11 10 10 9 9 9 10 11 11 11 10 10 10 10 10 11 11 10 10 10 10 10 10 9 9 10 11 13 13 12 12 12 12 13 14 13 15 15 15 13 12 10 9 9 9 9 8 7 6 5 6 7 8 8 9 9 9 10 11 12 12 11 10 9 9
11 11 11 11 11 10 9 9 8 8 9 11 10 10 10 9 10 10 10 10 10 10 10 10 9 9 9 10 10 11 13 13 13 13 13 12 12 13 13 11 13 13 13 11 10 10 9 9 9 9 8 7 6 5 6 7 9 10 11 11 12 12 13 13 12 11 10 9 9
11 11 11 11 11 10 9 9 8 8 9 10 10 9 9 9 9 9 10 10 10 10 10 10 9 8 8 9 10 12 13 13 14 14 14 14 15 14 12 10 12 12 11 10 9 8 8 8 8 8 7 7 6 6 7 9 11 12 12 13 14 14 13 13 11 10 10 10 10
11 11 12 11 11 10 9 8 7 8 8 9 9 9 9 8 9 9 10 10 10 9 9 10 9 8 8 8 9 10 11 12 14 15 16 16 16 15 12 10 11 11 10 9 8 7 6 6 6 6 7 6 6 7 10 12 12 13 13 13 13 13 12 11 10 10 10 10 10
11 11 11 12 11 11 10 9 8 8 8 9 9 9 9 9 8 9 9 10 9 9 10 11 9 9 8 8 8 9 10 11 13 15 16 17 15 13 11 10 10 10 9 9 8 7 6 5 6 6 6 7 8 11 13 13 13 13 12 12 12 11 11 10 10 10 10 10 11
11 11 11 12 12 11 11 10 10 10 10 10 10 10 9 9 9 9 9 9 10 11 12 11 10 9 9 9 9 9 9 11 14 15 15 14 12 11 10 10 9 9 9 9 8 8 7 7 7 7 8 9 11 13 13 12 11 11 11 10 10 10 10 10 10 9 9 9 10
11 11 11 11 12 12 12 11 11 11 11 11 10 10 10 10 10 10 9 9 10 11 12 11 10 9 10 11 11 10 10 12 14 14 13 11 10 10 10 10 9 9 9 9 9 9 9 9 9 10 10 12 13 13 12 10 10 9 9 10 10 10 10 10 9 8 7 7 7
11 11 11 11 11 12 12 12 12 12 12 11 11 11 12 12 12 11 11 10 10 11 11 11 10 10 11 13 13 13 12 12 13 12 11 9 10 10 10 10 10 9 10 10 11 11 11 11 12 12 13 13 12 11 10 9 9 9 9 9 10 10 9 8 7 5 4 3 2
11 11 11 11 11 11 11 11 12 11 11 10 10 11 12 12 12 12 12 11 11 11 11 11 10 11 12 14 15 15 13 12 13 11 10 9 10 10 10 10 10 10 11 11 12 12 12 12 13 13 12 12 11 10 10 9 10 10 10 9 9 8 7 5 4 3 2 2 5
11 11 10 10 11 11 11 10 10 10 10 9 9 10 10 12 12 12 12 11 11 11 10 10 10 11 12 14 15 15 14 12 12 11 10 9 9 10 10 10 11 11 12 12 12 12 12 12 12 11 11 10 10 10 10 10 10 10 10 8 7 6 4 3 1 2 5 8 9
11 11 10 10 10 10 10 10 10 9 9 8 8 8 9 11 12 12 12 11 11 11 10 10 10 11 12 13 14 14 14 13 13 12 11 10 10 10 11 11 12 12 12 12 11 11 10 10 10 10 10 10 10 11 11 10 10 9 8 7 6 4 1 2 5 8 10 10 10
11 10 10 9 10 10 10 10 10 9 8 8 8 8 8 10 12 13 12 12 11 12 11 10 11 12 12 12 12 13 14 14 13 13 12 11 11 11 12 11 12 12 11 9 8 8 8 7 8 9 9 10 10 10 9 8 8 7 7 6 4 2 4 8 10 11 11 11 10
11 11 10 9 10 10 10 10 10 9 8 7 7 7 8 10 13 14 13 13 13 14 14 13 13 13 12 11 12 12 13 14 14 14 14 14 13 13 12 11 10 9 7 6 7 8 8 8 8 8 8 8 8 8 7 6 5 4 3 2 4 7 10 12 12 12 11 11 10
11 11 11 10 10 11 11 10 10 9 8 7 7 7 8 10 13 15 16 16 16 16 16 15 14 13 12 12 13 14 14 14 15 16 17 16 16 14 12 9 7 6 5 6 6 7 8 8 7 7 6 6 6 4 3 2 3 4 5 6 8 10 11 12 12 12 11 10 10
11 11 11 11 11 11 11 11 10 9 9 8 8 8 9 11 14 17 18 18 18 17 16 15 15 13 13 13 15 16 16 15 15 16 17 17 16 13 11 9 8 6 3 1 1 3 4 5 4 3 2 2 2 4 6 7 9 10 10 11 11 11 12 13 12 11 11 10 9
11 11 11 11 11 11 11 12 11 11 10 9 9 9 10 13 16 17 18 18 17 17 16 15 14 13 12 13 16 17 17 16 14 15 15 15 14 13 12 9 4 1 4 5 4 2 2 2 2 2 4 6 7 9 10 10 11 11 11 11 11 12 12 12 11 10 10 9 9
11 11 11 11 11 11 12 12 13 12 11 10 10 11 12 13 15 16 17 17 17 16 14 12 11 11 10 12 14 15 16 15 13 13 13 14 14 11 6 2 5 7 7 6 2 2 4 5 8 11 12 12 10 9 9 10 10 10 10 10 10 11 11 10 10 9 9 9 10
11 11 11 12 12 12 12 12 13 13 12 11 11 12 13 13 13 15 16 16 16 14 11 9 9 9 10 11 12 12 13 13 13 13 14 13 8 4 7 10 9 8 7 6 7 10 13 15 18 19 19 17 14 12 11 11 11 11 11 10 11 12 12 12 11 10 10 9 10
11 11 11 12 12 12 12 12 13 13 12 12 13 14 13 12 13 14 14 14 12 9 8 9 11 12 13 12 11 10 9 7 6 6 6 6 8 10 11 11 11 10 9 11 15 18 21 22 22 22 22 20 17 14 13 13 13 12 12 11 12 13 13 12 12 12 11 11 11
12 12 12 12 12 12 12 13 13 13 14 14 15 14 14 12 11 10 10 8 6 5 5 6 7 8 8 6 5 4 4 4 5 5 7 10 12 13 13 14 13 12 12 16 19 22 24 25 25 25 25 23 20 17 16 15 15 14 14 15 15 14 13 12 12 12 13 13 12
13 13 13 13 13 14 14 14 15 15 15 16 15 14 13 11 8 6 4 3 4 5 7 8 9 9 8 7 9 10 10 10 9 9 10 12 14 15 15 13 11 12 14 18 21 23 25 26 27 27 27 25 21 19 17 16 15 14 14 15 16 16 15 14 13 13 14 13 12
14 14 14 14 14 15 15 15 16 16 15 15 14 13 12 9 6 4 4 5 7 9 11 12 12 12 11 11 11 11 11 10 10 10 11 13 16 16 15 12 10 12 15 18 21 24 26 27 28 28 27 25 20 18 18 18 16 15 15 16 16 15 15 15 15 15 14 14 13
15 15 14 14 14 15 15 15 15 15 15 14 13 12 10 7 5 6 7 7 9 10 11 11 11 12 12 12 13 13 13 12 13 13 14 15 17 17 16 14 12 14 16 19 21 23 25 26 27 27 26 23 19 17 18 19 18 18 18 17 17 17 17 16 15 15 14 14 13
15 15 15 14 14 14 14 14 14 14 13 13 13 10 7 6 7 7 8 9 10 12 12 11 13 14 15 14 13 13 13 13 14 14 15 15 17 18 18 16 14 15 17 19 21 23 24 25 25 25 24 20 17 16 16 17 17 17 18 18 18 17 17 16 15 14 14 14 13
15 15 15 14 14 13 13 13 13 13 12 12 11 8 6 8 8 8 8 9 12 14 14 14 15 15 15 13 13 12 13 13 14 14 14 15 16 17 17 16 15 15 16 18 20 22 23 23 23 23 21 18 16 15 15 15 14 15 17 17 17 16 16 15 15 15 15 15 15
15 15 14 14 14 13 13 12 12 12 11 10 7 6 7 9 8 8 9 10 14 15 15 15 15 15 15 14 14 14 15 15 15 15 15 15 16 16 16 16 15 14 15 18 20 21 22 22 22 21 19 17 16 15 14 13 14 14 15 15 15 15 14 12 13 14 16 19 20
14 14 14 14 13 13 13 12 12 11 9 7 7 9 10 10 9 8 9 11 14 15 15 16 16 15 15 15 15 16 17 17 16 16 16 16 16 16 16 16 15 15 16 19 20 21 22 22 22 21 19 17 16 14 13 13 14 15 14 14 13 14 13 12 12 13 16 21 24
13 14 14 14 14 13 13 13 11 9 8 10 11 12 12 11 10 10 11 13 15 16 16 17 17 16 15 15 16 17 17 17 17 16 17 17 17 17 17 16 16 16 17 19 21 22 22 22 22 20 18 15 14 13 13 13 14 15 14 13 12 12 12 12 12 12 14 17 21
13 13 14 14 14 13 12 11 10 10 12 13 13 12 11 11 11 12 13 14 16 16 16 16 16 16 15 15 16 17 18 18 17 17 16 17 17 17 17 16 17 17 17 19 21 22 22 22 21 20 17 14 13 12 12 13 14 15 15 13 12 11 11 11 11 11 12 13 14
Wind_Direction
177 175 172 169 166 161 154 147 145 147 149 152 155 158 160 157 151 145 144 151 157 158 158 164 165 158 149 145 143 140 138 137 137 136 136 137 140 146 152 158 162 164 166 169 170 171 174 180 182 182 181 182 179 178 181 189 188 182 173 166 165 164 165 169 174 176 178 180 182
171 167 163 159 156 151 144 138 137 139 141 145 148 150 150 144 137 136 142 155 156 153 153 160 160 154 148 147 145 144 142 139 136 133 132 135 141 149 155 161 164 166 167 169 167 168 172 177 174 172 171 170 170 180 191 198 188 176 166 164 164 164 166 172 176 178 179 181 182
163 160 157 156 154 148 142 140 141 141 141 141 143 143 140 136 134 139 147 155 150 148 148 153 152 149 148 148 147 146 145 141 137 133 132 135 142 150 157 161 165 167 167 165 160 160 163 166 163 161 159 158 177 192 199 200 187 172 162 165 164 165 169 177 179 180 180 184 183
153 153 154 155 149 144 140 141 142 142 142 142 142 140 139 139 141 145 148 148 145 146 150 152 149 149 150 150 148 147 144 140 135 132 132 136 142 147 152 156 161 162 161 156 152 152 152 151 149 149 156 172 194 201 202 194 178 167 163 165 164 167 173 180 181 182 184 188 188
148 148 149 147 139 135 134 138 141 143 143 144 144 143 142 142 143 145 147 148 148 149 150 151 150 150 151 150 148 145 142 138 132 131 133 137 140 143 146 151 153 153 152 150 150 149 146 142 141 153 174 193 204 205 199 183 169 163 161 163 166 170 176 180 182 184 187 190 192
144 142 139 134 129 128 130 136 140 142 144 145 145 145 145 145 146 148 150 150 146 143 143 145 147 148 148 148 146 144 142 138 134 134 136 139 139 141 144 148 148 147 147 149 151 151 150 150 156 175 192 203 208 204 193 173 163 159 160 163 170 175 178 181 182 183 185 188 192
139 137 135 132 130 131 133 137 140 142 143 143 145 145 145 146 146 147 148 145 140 137 138 142 147 148 147 146 145 144 144 141 138 138 139 141 142 145 148 150 149 148 150 155 159 163 167 172 178 187 196 203 205 198 185 165 159 158 162 169 175 179 180 183 180 179 181 186 190
134 134 134 133 134 135 136 138 140 142 143 143 143 143 143 143 143 143 142 140 138 137 138 142 147 148 147 145 145 146 147 145 142 142 143 145 147 150 153 154 154 157 160 166 172 178 183 187 190 191 193 197 197 187 172 158 157 161 168 175 180 183 184 184 179 178 180 185 189
131 131 131 131 134 135 136 136 137 139 140 140 139 139 139 139 138 138 139 139 138 136 135 139 144 144 144 144 146 149 151 150 148 148 149 150 152 155 157 159 164 168 173 178 184 188 190 192 192 190 188 190 184 173 162 155 158 165 173 178 182 185 187 187 182 181 183 186 192
132 131 130 130 132 132 132 131 132 133 134 134 135 135 135 134 135 136 138 138 134 132 131 134 137 138 140 142 147 152 154 153 152 152 153 155 156 159 163 168 174 179 182 186 188 189 189 189 186 184 184 183 171 161 154 153 162 171 178 182 183 185 189 193 189 188 190 195 199
135 134 133 132 133 131 130 129 128 130 131 133 134 134 134 133 133 133 134 134 131 130 130 131 133 135 138 141 146 150 152 150 151 153 155 156 160 165 171 176 181 184 185 186 185 184 183 181 178 176 175 171 158 151 149 154 167 177 184 186 184 186 191 199 199 199 200 203 206
138 137 136 135 134 133 131 130 129 130 132 135 136 137 137 135 133 131 131 131 130 129 128 129 131 134 136 139 142 142 142 142 146 150 153 156 164 173 180 183 183 183 182 179 178 177 176 173 169 166 163 158 150 147 150 159 174 185 191 191 189 192 197 204 204 205 206 206 208
140 138 137 137 136 134 132 131 130 132 134 137 138 139 138 136 133 132 131 130 129 127 127 128 130 133 136 140 140 139 139 140 145 148 150 154 170 185 192 189 181 177 174 172 172 172 169 165 161 158 155 151 148 149 156 168 184 194 198 197 196 199 204 207 207 207 206 205 208
141 140 140 139 138 136 133 132 132 134 137 139 139 139 137 134 134 133 132 130 128 127 126 128 129 132 137 141 141 140 141 142 146 148 150 157 180 196 201 189 176 171 169 168 168 165 161 158 156 152 149 146 148 156 169 184 196 201 202 202 202 205 207 209 207 205 204 204 208
142 142 142 141 139 137 135 134 134 136 138 139 140 138 136 134 134 133 132 129 127 126 126 128 128 130 134 139 140 142 144 147 150 151 155 165 188 200 201 183 172 167 165 163 161 157 153 150 149 146 142 144 156 173 190 201 206 207 207 206 206 208 209 209 206 204 203 204 209
143 143 143 143 142 140 138 137 136 138 139 141 141 139 137 135 134 133 131 129 127 126 126 128 128 130 132 136 141 145 149 153 155 158 163 175 192 197 192 174 167 163 159 154 150 146 144 145 144 142 143 152 174 195 206 210 211 211 211 211 210 210 210 209 205 204 205 206 211
145 146 146 145 144 142 140 139 139 139 141 141 142 141 140 137 136 133 131 130 128 129 130 130 130 132 135 139 146 152 158 162 163 166 171 182 189 188 177 165 161 156 151 144 142 143 147 152 149 150 158 173 195 207 213 213 212 213 214 214 214 213 212 210 207 207 208 210 214
148 148 148 147 145 143 141 140 140 140 141 142 143 144 144 142 139 135 132 130 131 132 134 133 135 138 143 149 156 163 169 172 171 172 175 181 180 173 163 157 154 149 144 141 147 155 163 166 165 169 178 192 206 212 214 212 212 213 215 216 217 216 215 214 212 211 211 213 218
151 150 150 148 146 143 141 140 141 141 142 142 144 146 148 147 144 140 136 134 133 135 137 138 141 146 153 159 164 170 175 177 173 171 170 170 165 159 155 152 149 148 149 155 164 171 175 177 179 184 192 202 210 212 212 210 211 213 215 217 218 218 218 216 215 214 214 216 225
153 152 151 149 146 143 141 141 141 142 141 141 144 147 150 152 150 147 143 140 138 139 140 142 147 154 162 168 168 170 174 176 171 167 162 158 156 154 153 152 154 159 166 173 178 181 184 186 189 193 199 205 208 209 209 208 211 213 215 217 219 219 220 219 218 221 228 241 273
155 154 152 150 147 144 142 142 141 141 139 138 142 147 151 154 154 152 149 145 143 143 145 148 154 162 169 172 168 168 170 171 170 166 162 158 157 156 156 158 166 173 181 185 187 188 190 192 195 198 201 204 205 206 206 208 211 214 216 218 219 221 223 227 236 254 303 18 40
156 155 154 151 148 145 143 142 141 139 137 136 138 144 150 156 157 155 152 148 147 148 150 153 160 169 174 173 165 164 166 168 172 172 170 164 162 161 163 170 179 186 191 194 193 194 195 197 199 201 202 203 205 206 208 209 212 215 217 218 221 227 236 254 298 33 51 57 60
157 156 155 153 150 147 144 144 142 140 137 134 134 139 148 156 157 155 153 151 151 152 155 158 166 174 177 172 164 162 165 170 177 180 179 173 169 170 175 182 190 195 198 199 197 196 197 199 202 204 204 205 206 208 209 210 212 214 217 220 224 229 241 44 59 64 67 66 65
157 157 156 155 152 149 147 147 146 143 138 133 132 136 145 155 156 155 154 155 157 160 162 164 171 176 178 171 165 165 169 174 180 183 185 183 181 183 186 191 196 199 201 201 198 196 196 199 204 207 207 207 208 208 208 209 212 216 219 221 214 151 77 70 71 73 74 72 68
157 157 157 157 155 152 151 150 149 146 140 134 132 135 143 153 156 156 157 160 164 167 169 170 173 176 177 171 170 172 175 179 182 185 188 191 193 193 194 196 200 201 202 202 201 200 199 201 204 206 207 207 208 209 210 213 222 226 220 183 116 95 87 83 80 78 76 73 71
156 157 158 158 157 155 154 153 151 147 141 136 135 139 147 157 159 160 162 166 170 172 173 173 176 177 177 174 176 179 181 183 185 188 192 196 198 198 198 200 200 198 196 197 201 205 208 210 213 213 212 207 203 196 179 130 69 61 68 80 88 93 95 92 86 80 75 72 73
156 157 158 158 157 157 157 155 151 147 144 141 144 150 158 165 164 165 167 171 172 174 175 177 179 180 180 180 182 184 186 187 189 192 194 197 200 201 203 204 198 194 191 210 237 237 233 231 233 235 222 175 113 87 76 70 64 63 66 70 78 84 88 89 86 82 77 72 71
155 155 155 154 155 156 156 154 152 150 149 150 155 162 168 172 168 168 169 172 174 176 178 181 182 182 183 184 186 187 188 188 190 192 195 199 202 203 204 207 202 96 39 8 344 313 267 233 197 123 95 87 83 81 80 79 75 71 68 67 70 74 78 82 82 81 77 72 69
151 151 151 152 152 153 153 153 153 153 154 157 163 169 174 175 170 169 170 173 177 179 182 184 182 181 183 186 187 187 187 186 188 191 195 198 202 208 211 96 46 25 12 10 33 96 112 113 107 102 98 93 92 88 84 79 75 72 69 66 65 67 70 74 75 76 74 72 70
149 149 150 150 150 151 151 152 153 155 157 162 169 175 178 177 171 170 172 178 182 183 183 180 176 176 179 183 183 183 184 185 187 190 195 201 191 132 62 41 31 20 17 34 81 93 93 93 93 93 93 92 90 86 82 78 76 74 71 70 69 69 70 70 71 71 72 72 71
152 152 151 151 151 152 152 152 153 156 161 168 175 179 181 180 175 174 177 183 184 181 176 172 171 174 177 179 178 177 177 177 180 180 171 145 94 72 60 52 42 36 40 59 81 88 89 89 90 89 89 88 88 86 85 82 79 76 74 73 72 71 71 70 68 67 68 70 72
158 157 156 155 155 155 155 154 156 160 166 174 179 183 186 186 181 180 180 180 171 160 152 153 157 162 162 156 136 111 84 59 58 69 82 88 83 77 68 60 52 49 55 67 80 86 89 89 89 88 87 87 87 87 86 84 81 78 76 74 72 70 69 69 68 67 66 67 69
162 162 161 160 160 160 159 159 161 165 171 178 183 188 191 191 186 177 159 112 93 86 82 76 74 73 72 68 64 60 56 53 55 63 76 87 87 82 76 70 62 58 62 72 81 86 88 89 89 89 88 87 87 87 86 85 83 80 77 73 71 70 69 68 68 67 66 67 68
166 166 165 165 164 164 164 164 166 169 174 180 187 192 194 191 176 140 86 64 69 73 76 76 75 74 73 71 72 69 66 64 65 68 74 82 86 86 83 77 70 66 69 77 83 86 89 90 91 90 89 88 87 86 86 85 83 81 79 76 73 70 68 67 66 66 66 66 68
169 169 169 169 168 168 168 169 170 172 175 181 189 194 192 177 134 96 82 81 82 81 80 80 80 76 70 65 68 71 72 72 73 74 78 82 86 86 84 81 76 73 74 80 84 87 89 91 92 92 91 89 88 87 86 85 83 82 81 79 75 72 69 67 65 64 64 65 67
171 172 172 172 172 172 171 172 172 173 176 182 189 189 176 130 97 90 91 91 87 83 78 74 72 71 69 67 68 71 74 77 79 80 82 86 88 88 87 85 80 76 76 81 85 88 90 92 93 93 93 92 91 90 88 87 85 84 82 80 77 74 72 70 67 65 64 63 64
173 174 174 174 174 174 174 173 173 173 176 182 184 173 136 101 94 93 93 91 86 83 79 76 74 74 74 73 71 70 71 74 77 79 80 83 86 88 89 87 82 77 76 80 84 87 89 92 93 94 94 94 94 93 92 90 88 86 83 81 79 77 74 73 70 68 66 65 64
175 175 176 176 176 175 174 173 173 174 175 177 162 129 104 98 96 93 91 92 91 90 87 84 81 80 78 75 73 71 69 69 72 75 76 77 81 85 87 86 82 78 77 80 83 86 88 90 92 93 94 96 97 96 95 93 91 88 85 82 79 76 74 73 71 70 68 68 68
177 176 176 177 176 175 174 174 173 170 162 141 112 99 95 97 95 94 92 92 94 93 92 87 83 80 80 80 78 74 72 70 71 74 76 77 78 82 84 85 82 79 78 80 83 85 87 89 91 92 94 96 97 98 97 96 93 90 87 84 80 76 73 71 70 70 69 69 69
180 177 177 177 177 176 175 174 166 149 124 106 100 98 97 98 97 96 93 90 90 90 88 86 85 85 84 83 81 78 75 72 71 73 75 78 79 80 81 83 82 81 79 80 82 84 86 88 90 91 93 95 96 98 98 98 95 92 89 86 83 79 75 71 70 69 69 68 68
182 179 178 178 178 176 171 158 133 112 101 99 100 101 101 100 100 98 96 93 90 88 87 88 90 90 88 85 83 81 78 75 72 72 73 76 77 77 78 80 81 81 80 79 81 83 84 86 87 88 90 92 94 96 97 97 94 92 90 89 87 84 80 76 72 70 68 67 67